COSMOS 970 DEB

Satellite information

Favourite Embed

Satellite Type and Status

DEBRISIN ORBIT

Key statistics

Satellite COSMOS 970 DEB at a glance.

Uptime

17524

Days in orbit

Revolutions

≈ 13.8

Per day

Orbit

LEO

Low Earth Orbit

Inclination

65.8

Latest

Satellite identification and parameters

Extended collection of information and parameters for COSMOS 970 DEB.

Object identification

Identified? True

Debris? True

Object name: COSMOS 970 DEB

International designator: 1977-121AD

Object number (NORAD): 10882

Object ID (CCSDS): 10882

Country: COMMONWEALTH OF INDEPENDENT STATES (CIS)

Current information (Y/N): Y

RCS size: SMALL

Orbital parameters

Period: 104.551 minutes

Inclination: 65.8224 deg

SMA: 7351.535 km

Apoapsis: 1076.192 km

Periapsis: 870.609 km

RAAN: 136.8024 deg

Eccentricy: 0.0139823

Argument of periapsis: 217.8903 deg

Mean anomaly: 141.2258 deg

Mean motion: 13.77322625 rev/day

Mean motion (dot): 0.0000081 rev/day2

B* drag term: 0.00083448 1/REarth

Two-line elements (TLE)

Creation date: Dec. 12, 2025, 7:16 a.m.

Reference frame: TEME

Reference center: EARTH

Epoch: Dec. 11, 2025, 8:33 p.m. UTC

TLE line 0: 0 COSMOS 970 DEB

TLE line 1: 1 10882U 77121AD 25345.85685588 .00000810 00000-0 83448-3 0 9998

TLE line 2: 2 10882 65.8224 136.8024 0139823 217.8903 141.2258 13.77322625400597

Live tracking on map

Real-time ground track for satellite COSMOS 970 DEB.

In-orbit conjunctions

A list of the most updated potential collisions computed for object COSMOS 970 DEB.

Target Orbit TCA Probability of collision Miss distance Type
CZ-6A DEB LEO 2025-02-17 07:52:56 0.00032652 368.0 (m) DEBRIS
FENGYUN 1C DEB SSO 2025-01-06 02:55:24 0.0009202748 55.0 (m) DEBRIS
FENGYUN 1C DEB SSO 2024-11-11 13:56:45 0.0001781519 713.0 (m) DEBRIS

Associated space launch

Second generation ASAT satellite

COSMOS 970 DEB was lifted into orbit during the mission ‘Tsiklon-2 | IS-A 8’, on board a Tsiklon-2 space rocket.

The launch took place on Dec. 21, 1977, 10:35 a.m. from 90.

For more information about the launch, click the button.

Launch to space Tsiklon-2 | IS-A 8
Tsiklon-2 | IS-A 8

Agency: N/A

Status: Launch Successful

Launch date: Dec. 21, 1977, 10:35 a.m. UTC

Rocket: Tsiklon-2

Launch pad: 90

Location: Baikonur Cosmodrome, Republic of Kazakhstan

...

Latest news about this satellite

There are no fresh news available about this satellite. Check back as we update our databases every day.


Newsletter sign-up

Weekly statistics, charts and insights to help you stay on top of the space industry.